Location: Courçay
(47.2523°N, 0.8761°E)
Time: 20:12:13
(UTC+00:00)

Resurs 1-3 - Pass Details

Date: 18 November 2025
Orbit: 613 x 615 km, 97.7° (Epoch: 10 December)

Event Time Altitude Azimuth Distance (km) Brightness Sun altitude
Rises 18:32:01 0° 171° (S) 2,871 6.9 -22.5°
Reaches altitude 10° 18:34:12 10° 174° (S) 1,970 6.1 -22.9°
Maximum altitude 18:38:28 70° 258° (WSW) 659 3.8 -23.6°
Drops below altitude 10° 18:42:47 10° 343° (NNW) 1,985 6.3 -24.4°
Sets 18:44:59 0° 345° (NNW) 2,895 7.2 -24.7°
